EW4524 Weather Reports


time (UTC)temp
C
wind
direction
speed
KPH
gust
KPH
rain 1hr
cm
rain 24hr
cm
rain mn
cm
humidity
%
barometer
mb
20260507194510 13 281 0.0 0.0 0.00 0.05 0.05 74 1012.7
20260507193005 13 208 0.0 0.0 0.00 0.05 0.05 74 1012.6
20260507191504 13 207 0.0 0.0 0.00 0.05 0.05 74 1012.6
20260507190005 13 207 0.0 0.0 0.00 0.05 0.05 74 1012.4
20260507184503 13 206 0.0 4.8 0.00 0.05 0.05 73 1012.3
20260507183009 13 164 0.0 0.0 0.00 0.05 0.05 71 1012.4
20260507181502 13 163 0.0 0.0 0.00 0.05 0.05 71 1012.3
20260507180002 14 163 0.0 0.0 0.00 0.05 0.05 70 1012.2
20260507174501 14 140 1.6 9.7 0.00 0.05 0.05 69 1012.2
20260507173001 15 178 1.6 8.0 0.00 0.05 0.05 67 1012.3
20260507171615 15 133 1.6 17.7 0.00 0.05 0.05 68 1012.3
20260507170101 15 197 8.0 14.5 0.00 0.05 0.05 65 1012.2
20260507164612 15 165 3.2 9.7 0.00 0.05 0.05 65 1012.1
20260507163059 15 171 3.2 11.3 0.00 0.05 0.05 65 1012.1
20260507161605 16 191 3.2 12.9 0.00 0.05 0.05 64 1012.1
20260507160100 16 143 4.8 14.5 0.00 0.05 0.05 62 1012.1
20260507154557 16 198 6.4 16.1 0.00 0.05 0.05 62 1012.2
20260507153057 16 194 6.4 17.7 0.00 0.05 0.05 60 1012.2
20260507151556 17 194 8.0 19.3 0.00 0.05 0.05 58 1012.1
20260507144553 18 140 6.4 20.9 0.00 0.05 0.05 58 1012.3
20260507143100 17 139 4.8 16.1 0.00 0.05 0.05 59 1012.5
20260507141552 17 119 4.8 19.3 0.00 0.05 0.05 61 1012.8
20260507140046 16 173 3.2 14.5 0.00 0.05 0.05 61 1012.9
20260507134553 15 189 3.2 11.3 0.00 0.05 0.05 68 1013.1
20260507133044 15 140 4.8 12.9 0.00 0.05 0.05 67 1013.1
20260507131543 16 192 3.2 12.9 0.00 0.05 0.05 65 1013.1
20260507130043 16 132 6.4 19.3 0.00 0.05 0.05 64 1013.2
20260507124541 16 157 6.4 16.1 0.00 0.05 0.05 65 1013.4
20260507123041 16 105 6.4 14.5 0.00 0.05 0.05 66 1013.3
20260507121541 16 94 4.8 16.1 0.00 0.05 0.05 66 1013.5
20260507120039 16 106 8.0 16.1 0.00 0.05 0.05 68 1013.6
20260507114538 15 119 6.4 12.9 0.00 0.05 0.05 71 1013.9
20260507113033 15 166 6.4 11.3 0.00 0.05 0.05 74 1013.9
20260507111530 14 150 3.2 11.3 0.00 0.05 0.05 74 1014.1
20260507110025 13 103 8.0 16.1 0.00 0.05 0.05 76 1014.3
20260507104524 12 129 6.4 11.3 0.00 0.05 0.05 79 1014.4
20260507103023 11 168 6.4 11.3 0.00 0.05 0.05 82 1014.5
20260507101520 11 138 6.4 11.3 0.00 0.05 0.05 84 1014.4
20260507100012 10 141 0.0 6.4 0.00 0.05 0.05 86 1014.4
20260507094509 10 146 3.2 8.0 0.05 0.05 0.05 85 1014.5
20260507093009 9 142 1.6 6.4 0.05 0.05 0.05 86 1014.4
20260507091508 9 128 3.2 8.0 0.05 0.05 0.05 87 1014.4
20260507090007 10 173 3.2 12.9 0.05 0.05 0.05 84 1014.4
20260507084506 10 153 4.8 12.9 0.00 0.00 0.00 80 1014.3
20260507083007 10 139 4.8 12.9 0.00 0.00 0.00 79 1014.3
20260507081511 10 190 4.8 11.3 0.00 0.00 0.00 79 1014.3
20260507080005 10 136 6.4 14.5 0.00 0.00 0.00 77 1014.3
20260507074515 10 126 6.4 11.3 0.00 0.00 0.00 78 1014.3
20260507073002 10 153 6.4 14.5 0.00 0.00 0.00 79 1014.2
20260507071601 10 145 3.2 14.5 0.00 0.00 0.00 80 1014.2
20260507070107 10 155 6.4 12.9 0.00 0.00 0.00 80 1014.1
20260507064556 9 179 1.6 11.3 0.00 0.00 0.00 81 1014.1
20260507063053 9 149 3.2 11.3 0.00 0.00 0.00 81 1014.0
20260507061547 9 170 0.0 4.8 0.00 0.00 0.00 82 1013.9
20260507060059 8 177 0.0 3.2 0.00 0.00 0.00 83 1013.7
20260507054547 8 177 0.0 0.0 0.00 0.00 0.00 83 1013.6
20260507053048 8 177 0.0 0.0 0.00 0.00 0.00 83 1013.6
20260507051541 8 177 0.0 0.0 0.00 0.00 0.00 83 1013.5
20260507050041 8 177 0.0 3.2 0.00 0.00 0.00 83 1013.4
20260507044534 8 177 0.0 4.8 0.00 0.00 0.00 83 1013.4
20260507043034 8 177 0.0 0.0 0.00 0.00 0.00 83 1013.3
20260507041533 8 177 0.0 0.0 0.00 0.00 0.00 83 1013.4
20260507040034 8 177 0.0 0.0 0.00 0.00 0.00 83 1013.2
20260507034549 9 176 0.0 4.8 0.00 0.00 0.00 83 1013.2
20260507033033 9 176 1.6 8.0 0.00 0.00 0.00 82 1013.2
20260507031528 9 144 1.6 6.4 0.00 0.00 0.00 82 1013.2
20260507030028 9 142 0.0 6.4 0.00 0.00 0.00 82 1013.2
20260507024544 10 140 1.6 8.0 0.00 0.00 0.00 82 1013.1
20260507023024 10 137 0.0 6.4 0.00 0.00 0.00 83 1013.1
20260507021524 10 148 1.6 9.7 0.00 0.00 0.00 84 1013.1
20260507020020 10 153 0.0 4.8 0.00 0.00 0.00 86 1013.1
20260507014533 10 163 0.0 6.4 0.00 0.00 0.00 87 1013.1
20260507013018 10 152 0.0 4.8 0.00 0.00 0.00 87 1013.1
20260507011531 10 151 0.0 4.8 0.00 0.00 0.00 88 1013.1
20260507010018 10 153 0.0 6.4 0.00 0.00 0.00 87 1013.1
20260507004514 11 123 0.0 0.0 0.00 0.00 0.00 88 1013.1
20260507003017 11 121 0.0 0.0 0.00 0.00 0.00 89 1013.1
20260507001512 11 121 0.0 0.0 0.00 0.00 0.00 88 1013.3
20260507000012 11 121 0.0 0.0 0.00 0.00 0.00 89 1013.4
20260506234510 11 121 0.0 0.0 0.00 0.00 0.00 88 1013.4
20260506233009 11 121 0.0 0.0 0.00 0.00 0.00 87 1013.3
20260506231507 11 121 0.0 0.0 0.00 0.00 0.00 83 1013.4
20260506230010 11 121 0.0 0.0 0.00 0.00 0.00 79 1013.4
20260506224505 11 121 0.0 0.0 0.00 0.00 0.00 77 1013.4
20260506223002 11 121 0.0 0.0 0.00 0.00 0.00 78 1013.3
20260506221612 11 121 0.0 0.0 0.00 0.00 0.00 76 1013.2
20260506220059 11 90 0.0 4.8 0.00 0.00 0.00 76 1013.2
20260506214606 11 67 0.0 3.2 0.00 0.00 0.00 78 1013.1
20260506213058 12 52 0.0 0.0 0.00 0.00 0.00 76 1013.2
20260506211559 12 52 0.0 3.2 0.00 0.00 0.00 76 1013.0
20260506210056 12 51 0.0 0.0 0.00 0.00 0.00 75 1013.1
20260506204608 12 51 0.0 0.0 0.00 0.00 0.00 74 1013.1
20260506203054 12 51 0.0 0.0 0.00 0.00 0.00 75 1013.0
20260506201553 12 51 0.0 0.0 0.00 0.00 0.00 75 1012.8
20260506200052 12 51 0.0 4.8 0.00 0.00 0.00 75 1012.6